Starlink 11431

operational
NORAD ID: 62890 Int'l Des: 2025-024 Owner: SPXS Country: US Constellation: starlink
LEOCIRCULAR

About Starlink 11431

Description loading...

Live Position

Loading 3D Globe...

Upcoming Passes

Altitude History

Altitude vs Time

uPlot chart will show altitude changes over time

Two-Line Element Set

1 62890U 25024M 25304.81935441 .00379907 00000-0 27928-2 0 9992
2 62890 42.9996 238.6888 0002831 307.8524 52.2087 15.71163542 43198
Epoch: Oct 31, 2025 • Age: 7 hours

Current Status

Altitude 360.6 km
Velocity 7.69 km/s
Sub-Earth Point -28.79°S, 113.73°E
Launch Date Feb 4, 2025
Age 0.7 years
Type internet

Technical Details

Classification Payload
Mass 960.00 kg
Dry Mass 910.00 kg
Total Mass 960.00 kg
Length 0.30 m
Diameter 4.10 m
Span 29.00 m
Shape Box + pan
Manufacturer SPXS
Bus Type Starlink V2MD
Phase Status In Orbit
Owner/State SPXS/US

Large Constellations

Loading constellations...